Zurück zum Katalog

KINEIS-3C

AktivKommunikationSSO
NORAD 61220·PAYLOAD·🇫🇷 France

Gestartet Sep 20, 2024 von Rocket Lab Launch Complex 1

Loading…

Nächste Überflüge (nächste 24 Stunden)

TLE

AktuellSource: Space-Track

Epoche: Sep 14, 2026, 05:42 UTC

1 61220U 24172A   26257.23793449  .00001311  00000-0  21516-3 0  9994
2 61220  98.0411 346.1822 0001198 164.0326 196.0920 14.72318763106177

Verfolge KINEIS-3C in Echtzeit mit AllMySat

Download on the App Store